Aérodrome :
LOGIN :

S'inscrire | Disclaimer

   EN    FR    IT 

 










Légende :    VFR   VFR Marginal   IFR   IFR Intensif   IFR Très Intensif
Visi : 
Plafond : 
>= 8 km
>= 3000ft
5 à 8 km
1000 à 3000 ft
1500m à 5 km
500 à 1000 ft
800 à 1500m
200 à 500 ft
< 800m
< 200 ft
Symboles :   Orages  Brouillard  Fortes neiges  Fortes précipitations  Vent > 20 kt
SIGMETs :   Divers  Orages  Givrage  Turbulence  Onde Orograph.  Cendres Volcan.







- Altitude de l'aérodrome : 302 ft
- Voir les cartes d'approche


LFPM - Melun Villaroche

DERNIER METAR :
  • 221430Z AUTO 19006KT 3400 BR OVC004 01/01 Q1004

METARs EXPIRÉS :
  • 221400Z AUTO 20006KT 3000 BR OVC004 01/01 Q1004
  • 221330Z AUTO 19005KT 2100 BR OVC004 01/01 Q1005
  • 221300Z AUTO 18005KT 1000 -SN BR BKN004 OVC021 01/01 Q1005
  • 221230Z AUTO 18006KT 0650 SN FG BKN003 BKN013 OVC020 01/00 Q1006
  • 221200Z AUTO 22004KT 0500 +SN FG OVC004 00/00 Q1006

Prévision TAF périmée.
ATIS : +33 1 64 14 28 44
Pas de NOTAMs connus pour ce terrain.



MET'MAP, la Météo Aéronautique d'un coup d'oeil ! - Copyright ORBIFLY Décembre 2007 - Disclaimer

ORBIFLY MET'MAP TEAM :

Programmation & Développement : Alexandra Zaïnal
Conception & Développement : Baudouin d'Aumeries
Co-Programmation & Développement : Marc-Olivier Méhu
Soutien technique & logistique : Manuel Goepfert

Contact : metmap@orbifly.com




SOURCES & CREDITS :

   NOAA